BOCF13 EGNX-KMIA

Flight info

Callsign BOCF13
Flight time N/A
Altitude 30000
Route TNT Q4 WAL/N0479F300 L10 PENIL M144 BAGSO DCT RINUS/N0481F320 DCT MALOT/M083F320 NATE RIKAL/N0476F340 N572A TOPPS DCT HTO DCT BEADS DCT SWL DCT SKARP AR22 HOAGG BNFSH3
Aircraft B77L/H-SDE1E2E3FGHIJ2J3J4J5M1RWXY/LB1D1

Departure

Time N/A
Airport East Midlands Airport (EGNX)

Arrival

Time 2026-05-05 20:04
Airport Miami International Airport (KMIA)
Time Latitude Longitude Altitude Speed Heading
2026-05-05 17:01 40.51045 -72.79984 33982 ft 459 kts 221°
2026-05-05 17:01 40.46224 -72.85472 33982 ft 459 kts 221°
2026-05-05 17:02 40.41394 -72.90959 33967 ft 459 kts 221°
2026-05-05 17:02 40.36559 -72.96441 33954 ft 459 kts 221°
2026-05-05 17:03 40.31730 -73.01903 33952 ft 458 kts 221°
2026-05-05 17:03 40.26902 -73.07355 33950 ft 458 kts 221°
2026-05-05 17:04 40.22080 -73.12789 33952 ft 457 kts 221°
2026-05-05 17:04 40.17256 -73.18216 33941 ft 457 kts 221°
2026-05-05 17:05 40.12429 -73.23634 33935 ft 457 kts 221°
2026-05-05 17:05 40.07607 -73.29037 33954 ft 457 kts 221°
2026-05-05 17:06 40.02783 -73.34429 33946 ft 457 kts 221°
2026-05-05 17:06 39.97956 -73.39817 33935 ft 456 kts 221°
2026-05-05 17:07 39.93127 -73.45197 33930 ft 456 kts 221°
2026-05-05 17:07 39.88300 -73.50564 33952 ft 456 kts 221°
2026-05-05 17:08 39.83473 -73.55919 33948 ft 456 kts 221°
2026-05-05 17:08 39.78640 -73.61271 33951 ft 456 kts 221°
2026-05-05 17:09 39.73805 -73.66615 33935 ft 456 kts 221°
2026-05-05 17:09 39.68967 -73.71954 33935 ft 456 kts 221°
2026-05-05 17:10 39.64130 -73.77282 33951 ft 456 kts 221°
2026-05-05 17:10 39.59285 -73.82606 33947 ft 456 kts 221°
2026-05-05 17:11 39.54438 -73.87922 33954 ft 457 kts 221°
2026-05-05 17:11 39.49588 -73.93233 33949 ft 457 kts 221°
2026-05-05 17:12 39.44735 -73.98537 33955 ft 456 kts 221°
2026-05-05 17:12 39.39885 -74.03827 33961 ft 456 kts 221°
2026-05-05 17:13 39.35038 -74.09103 33966 ft 455 kts 221°
2026-05-05 17:13 39.30196 -74.14366 33972 ft 455 kts 221°
2026-05-05 17:14 39.25353 -74.19620 33971 ft 454 kts 221°
2026-05-05 17:14 39.20510 -74.24861 33977 ft 454 kts 221°
2026-05-05 17:15 39.15671 -74.30093 33972 ft 454 kts 221°
2026-05-05 17:15 39.10854 -74.35288 33973 ft 454 kts 221°
2026-05-05 17:16 39.06010 -74.40502 33970 ft 454 kts 221°
2026-05-05 17:16 39.01167 -74.45707 33975 ft 454 kts 221°
2026-05-05 17:17 38.96323 -74.50902 33996 ft 453 kts 221°
2026-05-05 17:17 38.91482 -74.56086 34000 ft 453 kts 221°
2026-05-05 17:18 38.86640 -74.61260 34002 ft 453 kts 221°
2026-05-05 17:18 38.81797 -74.66426 33999 ft 453 kts 221°
2026-05-05 17:19 38.76948 -74.71590 34001 ft 453 kts 221°
2026-05-05 17:19 38.72098 -74.76746 34001 ft 453 kts 221°
2026-05-05 17:20 38.67246 -74.81894 34002 ft 453 kts 221°
2026-05-05 17:20 38.62394 -74.87033 34011 ft 453 kts 221°
2026-05-05 17:21 38.57543 -74.92160 34017 ft 452 kts 221°
2026-05-05 17:22 38.50264 -74.99838 34021 ft 453 kts 221°
2026-05-05 17:22 38.45402 -75.04954 34021 ft 453 kts 221°
2026-05-05 17:23 38.40540 -75.10061 34030 ft 453 kts 221°
2026-05-05 17:23 38.35673 -75.15163 34030 ft 453 kts 221°
2026-05-05 17:24 38.30809 -75.20256 34033 ft 453 kts 221°
2026-05-05 17:24 38.25931 -75.25353 34029 ft 453 kts 221°
2026-05-05 17:25 38.21058 -75.30436 34029 ft 453 kts 221°
2026-05-05 17:25 38.16212 -75.35482 34030 ft 453 kts 221°
2026-05-05 17:26 38.11303 -75.40586 34045 ft 453 kts 221°
2026-05-05 17:26 38.06354 -75.45471 34048 ft 455 kts 216°
2026-05-05 17:27 38.00771 -75.49325 34051 ft 459 kts 207°
2026-05-05 17:27 37.94928 -75.52614 34050 ft 459 kts 207°
2026-05-05 17:28 37.89100 -75.55897 34049 ft 459 kts 207°
2026-05-05 17:28 37.83275 -75.59202 34051 ft 459 kts 207°
2026-05-05 17:29 37.77453 -75.62515 34046 ft 459 kts 207°
2026-05-05 17:29 37.71632 -75.65823 34057 ft 458 kts 207°
2026-05-05 17:30 37.65815 -75.69124 34053 ft 458 kts 207°
2026-05-05 17:30 37.60000 -75.72417 34055 ft 458 kts 207°
2026-05-05 17:31 37.54183 -75.75704 34057 ft 458 kts 207°
2026-05-05 17:31 37.48365 -75.78986 34056 ft 458 kts 207°
2026-05-05 17:32 37.42549 -75.82261 34056 ft 458 kts 207°
2026-05-05 17:32 37.36735 -75.85530 34055 ft 458 kts 207°
2026-05-05 17:33 37.30920 -75.88795 34056 ft 457 kts 207°
2026-05-05 17:33 37.25111 -75.92050 34058 ft 457 kts 207°
2026-05-05 17:34 37.19310 -75.95296 34065 ft 456 kts 207°
2026-05-05 17:34 37.13506 -75.98537 34065 ft 456 kts 207°
2026-05-05 17:35 37.07707 -76.01770 34062 ft 456 kts 207°
2026-05-05 17:35 37.01906 -76.04999 34065 ft 457 kts 207°
2026-05-05 17:36 36.96089 -76.08232 34066 ft 458 kts 207°
2026-05-05 17:36 36.90301 -76.11443 34069 ft 458 kts 207°
2026-05-05 17:37 36.84464 -76.14676 34067 ft 459 kts 207°
2026-05-05 17:37 36.78588 -76.17924 34066 ft 459 kts 207°
2026-05-05 17:38 36.72792 -76.21122 34080 ft 458 kts 207°
2026-05-05 17:38 36.66966 -76.24332 34097 ft 457 kts 206°
2026-05-05 17:39 36.61149 -76.27532 34088 ft 457 kts 206°
2026-05-05 17:39 36.55343 -76.30721 34085 ft 456 kts 206°
2026-05-05 17:40 36.49541 -76.33902 34096 ft 455 kts 206°
2026-05-05 17:40 36.43748 -76.37073 34098 ft 455 kts 206°
2026-05-05 17:41 36.37921 -76.40261 34521 ft 458 kts 206°
2026-05-05 17:41 36.35946 -76.41338 34771 ft 457 kts 206°
2026-05-05 17:41 36.32097 -76.43436 35234 ft 456 kts 207°
2026-05-05 17:41 36.29195 -76.45017 35549 ft 456 kts 207°
2026-05-05 17:42 36.26290 -76.46600 35822 ft 456 kts 207°
2026-05-05 17:42 36.24361 -76.47649 35984 ft 457 kts 207°
2026-05-05 17:42 36.21437 -76.49240 36065 ft 460 kts 207°
2026-05-05 17:43 36.15578 -76.52423 36120 ft 459 kts 207°
2026-05-05 17:43 36.09741 -76.55585 36120 ft 457 kts 207°
2026-05-05 17:44 36.03918 -76.58737 36121 ft 456 kts 207°
2026-05-05 17:44 35.98102 -76.61881 36116 ft 456 kts 207°
2026-05-05 17:45 35.92289 -76.65019 36122 ft 456 kts 207°
2026-05-05 17:45 35.86465 -76.68157 36117 ft 457 kts 207°
2026-05-05 17:46 35.80626 -76.71298 36118 ft 458 kts 207°
2026-05-05 17:46 35.74773 -76.74441 36126 ft 460 kts 207°
2026-05-05 17:47 35.68968 -76.77553 36120 ft 461 kts 207°
2026-05-05 17:47 35.63060 -76.80715 36126 ft 462 kts 207°
2026-05-05 17:48 35.57151 -76.83872 36120 ft 463 kts 207°
2026-05-05 17:48 35.51239 -76.87027 36120 ft 464 kts 207°
2026-05-05 17:49 35.45311 -76.90184 36118 ft 464 kts 207°
2026-05-05 17:49 35.39381 -76.93337 36124 ft 465 kts 207°
2026-05-05 17:50 35.33440 -76.96492 36132 ft 465 kts 207°
2026-05-05 17:50 35.27500 -76.99640 36129 ft 466 kts 207°
2026-05-05 17:51 35.21553 -77.02788 36143 ft 466 kts 207°
2026-05-05 17:51 35.15604 -77.05931 36135 ft 466 kts 207°
2026-05-05 17:52 35.09635 -77.09080 36146 ft 467 kts 207°
2026-05-05 17:52 35.03668 -77.12224 36144 ft 468 kts 207°
2026-05-05 17:53 34.97693 -77.15367 36129 ft 468 kts 207°
2026-05-05 17:53 34.91710 -77.18507 36145 ft 468 kts 207°
2026-05-05 17:54 34.85725 -77.21645 36150 ft 468 kts 207°
2026-05-05 17:54 34.79737 -77.24778 36149 ft 469 kts 207°
2026-05-05 17:55 34.73743 -77.27910 36148 ft 469 kts 207°
2026-05-05 17:55 34.67788 -77.31018 36146 ft 469 kts 207°
2026-05-05 17:56 34.61745 -77.34167 36149 ft 470 kts 207°
2026-05-05 17:56 34.55786 -77.37268 36147 ft 470 kts 207°
2026-05-05 17:57 34.49826 -77.40253 36146 ft 473 kts 203°
2026-05-05 17:57 34.43384 -77.42146 36150 ft 480 kts 193°
2026-05-05 17:58 34.36777 -77.43377 36150 ft 481 kts 193°
2026-05-05 17:58 34.30157 -77.44623 36147 ft 482 kts 193°
2026-05-05 17:59 34.23527 -77.45906 36149 ft 483 kts 193°
2026-05-05 17:59 34.16889 -77.47205 36136 ft 484 kts 193°
2026-05-05 18:00 34.10242 -77.48503 36135 ft 484 kts 193°
2026-05-05 18:00 34.03596 -77.49798 36146 ft 484 kts 193°
2026-05-05 18:01 33.96935 -77.51092 36141 ft 485 kts 193°
2026-05-05 18:01 33.90274 -77.52383 36146 ft 485 kts 194°
2026-05-05 18:02 33.83612 -77.53675 36129 ft 485 kts 194°
2026-05-05 18:02 33.76937 -77.54966 36150 ft 486 kts 194°
2026-05-05 18:03 33.70235 -77.56261 36136 ft 492 kts 194°
2026-05-05 18:03 33.63388 -77.57586 36151 ft 505 kts 195°
2026-05-05 18:04 33.56418 -77.59099 36159 ft 512 kts 201°
2026-05-05 18:04 33.49594 -77.61490 36154 ft 516 kts 203°
2026-05-05 18:05 33.42713 -77.63967 36149 ft 517 kts 203°
2026-05-05 18:05 33.35813 -77.66405 36144 ft 517 kts 202°
2026-05-05 18:06 33.28927 -77.68806 36146 ft 514 kts 202°
2026-05-05 18:06 33.22073 -77.71186 36133 ft 512 kts 202°
2026-05-05 18:07 33.15251 -77.73558 36132 ft 509 kts 202°
2026-05-05 18:07 33.08459 -77.75916 36134 ft 508 kts 202°
2026-05-05 18:08 33.01680 -77.78269 36131 ft 507 kts 203°
2026-05-05 18:08 32.94911 -77.80612 36146 ft 506 kts 203°
2026-05-05 18:09 32.88144 -77.82952 36133 ft 507 kts 203°
2026-05-05 18:09 32.81366 -77.85290 36133 ft 508 kts 203°
2026-05-05 18:10 32.74577 -77.87628 36145 ft 509 kts 203°
2026-05-05 18:10 32.67767 -77.89970 36145 ft 510 kts 203°
2026-05-05 18:11 32.60925 -77.92247 36136 ft 512 kts 202°
2026-05-05 18:11 32.54048 -77.94454 36144 ft 513 kts 202°
2026-05-05 18:12 32.47207 -77.96649 36149 ft 513 kts 202°
2026-05-05 18:12 32.40315 -77.98872 36147 ft 513 kts 203°
2026-05-05 18:13 32.33419 -78.01098 36147 ft 514 kts 203°
2026-05-05 18:13 32.26515 -78.03324 36148 ft 515 kts 203°
2026-05-05 18:14 32.19597 -78.05551 36130 ft 515 kts 203°
2026-05-05 18:14 32.12675 -78.07774 36130 ft 516 kts 203°
2026-05-05 18:15 32.05756 -78.09991 36128 ft 515 kts 203°
2026-05-05 18:15 31.98836 -78.12207 36133 ft 515 kts 203°
2026-05-05 18:16 31.91928 -78.14416 36131 ft 514 kts 203°
2026-05-05 18:16 31.85016 -78.16623 36127 ft 514 kts 203°
2026-05-05 18:17 31.78125 -78.18819 36136 ft 514 kts 203°
2026-05-05 18:17 31.71214 -78.21019 36127 ft 514 kts 203°
2026-05-05 18:18 31.64315 -78.23211 36131 ft 514 kts 203°
2026-05-05 18:18 31.57413 -78.25401 36122 ft 514 kts 203°
2026-05-05 18:19 31.50508 -78.27589 36126 ft 514 kts 203°
2026-05-05 18:19 31.43808 -78.29728 36111 ft 506 kts 204°
2026-05-05 18:20 31.37110 -78.31964 36116 ft 496 kts 205°
2026-05-05 18:20 31.30527 -78.34190 36117 ft 489 kts 205°
2026-05-05 18:21 31.24039 -78.36371 36117 ft 482 kts 205°
2026-05-05 18:21 31.17635 -78.38511 36124 ft 476 kts 205°
2026-05-05 18:22 31.11349 -78.40605 36124 ft 470 kts 205°
2026-05-05 18:22 31.05090 -78.42688 36121 ft 465 kts 206°
2026-05-05 18:23 30.98898 -78.44745 36119 ft 460 kts 206°
2026-05-05 18:23 30.92769 -78.46780 36123 ft 456 kts 206°
2026-05-05 18:24 30.86700 -78.48792 36122 ft 451 kts 206°
2026-05-05 18:24 30.80695 -78.50779 36119 ft 447 kts 206°
2026-05-05 18:25 30.74741 -78.52748 36117 ft 442 kts 206°
2026-05-05 18:25 30.68848 -78.54694 36121 ft 438 kts 206°
2026-05-05 18:26 30.63009 -78.56618 36124 ft 434 kts 206°
2026-05-05 18:26 30.57221 -78.58525 36120 ft 430 kts 206°
2026-05-05 18:27 30.51495 -78.60408 36117 ft 426 kts 207°
2026-05-05 18:27 30.45828 -78.62271 36108 ft 422 kts 207°
2026-05-05 18:28 30.37360 -78.65053 35916 ft 421 kts 207°
2026-05-05 18:28 30.31741 -78.66893 35829 ft 419 kts 207°
2026-05-05 18:29 30.26134 -78.68728 35731 ft 418 kts 207°
2026-05-05 18:29 30.21483 -78.70249 35654 ft 417 kts 207°
2026-05-05 18:30 30.15903 -78.72072 35555 ft 417 kts 207°
2026-05-05 18:30 30.09432 -78.74187 35459 ft 415 kts 207°
2026-05-05 18:31 30.03871 -78.76005 35337 ft 415 kts 207°
2026-05-05 18:31 29.99218 -78.77523 35290 ft 414 kts 207°
2026-05-05 18:32 29.93674 -78.79330 35183 ft 414 kts 207°
2026-05-05 18:32 29.88167 -78.81123 35110 ft 413 kts 207°
2026-05-05 18:33 29.82597 -78.82935 35037 ft 413 kts 207°
2026-05-05 18:33 29.77069 -78.84647 34920 ft 420 kts 201°
2026-05-05 18:34 29.71196 -78.85543 34882 ft 427 kts 196°
2026-05-05 18:34 29.65250 -78.86180 34837 ft 426 kts 196°
2026-05-05 18:35 29.59398 -78.86880 34780 ft 425 kts 197°
2026-05-05 18:35 29.53526 -78.87646 34678 ft 425 kts 197°
2026-05-05 18:36 29.47612 -78.88441 34638 ft 424 kts 197°
2026-05-05 18:36 29.41788 -78.89224 34587 ft 424 kts 197°
2026-05-05 18:37 29.35930 -78.90011 34542 ft 423 kts 197°
2026-05-05 18:37 29.30083 -78.90794 34482 ft 424 kts 197°
2026-05-05 18:38 29.24222 -78.91578 34434 ft 423 kts 197°
2026-05-05 18:38 29.18376 -78.92358 34416 ft 423 kts 197°
2026-05-05 18:39 29.12535 -78.93138 34372 ft 422 kts 197°
2026-05-05 18:39 29.06714 -78.93913 34369 ft 421 kts 197°
2026-05-05 18:40 29.00893 -78.94689 34334 ft 420 kts 197°
2026-05-05 18:40 28.95082 -78.95462 34273 ft 421 kts 197°
2026-05-05 18:41 28.89267 -78.96234 34251 ft 420 kts 197°
2026-05-05 18:41 28.83463 -78.97003 34224 ft 420 kts 197°
2026-05-05 18:42 28.77660 -78.97773 34221 ft 419 kts 197°
2026-05-05 18:42 28.71869 -78.98540 34188 ft 419 kts 197°
2026-05-05 18:43 28.66075 -78.99306 34167 ft 419 kts 197°
2026-05-05 18:43 28.60284 -79.00070 34127 ft 419 kts 197°
2026-05-05 18:44 28.54534 -79.00829 34103 ft 419 kts 197°
2026-05-05 18:44 28.48754 -79.01591 34080 ft 418 kts 197°
2026-05-05 18:45 28.42972 -79.02353 34064 ft 418 kts 197°
2026-05-05 18:45 28.37189 -79.03114 34045 ft 418 kts 197°
2026-05-05 18:46 28.31536 -79.04249 33899 ft 406 kts 209°
2026-05-05 18:46 28.26240 -79.06286 34005 ft 397 kts 212°
2026-05-05 18:47 28.21027 -79.08366 33950 ft 399 kts 211°
2026-05-05 18:47 28.15756 -79.10394 33951 ft 399 kts 211°
2026-05-05 18:48 28.10476 -79.12376 33855 ft 402 kts 210°
2026-05-05 18:48 28.05167 -79.14351 33894 ft 400 kts 210°
2026-05-05 18:49 27.99872 -79.16315 33855 ft 401 kts 210°
2026-05-05 18:49 27.94573 -79.18281 33877 ft 400 kts 210°
2026-05-05 18:50 27.89287 -79.20241 33858 ft 400 kts 210°
2026-05-05 18:50 27.84001 -79.22200 33835 ft 400 kts 210°
2026-05-05 18:51 27.78712 -79.24157 33825 ft 400 kts 210°
2026-05-05 18:51 27.73424 -79.26113 33803 ft 400 kts 210°
2026-05-05 18:52 27.68141 -79.28063 33806 ft 399 kts 210°
2026-05-05 18:52 27.62854 -79.30015 33763 ft 400 kts 210°
2026-05-05 18:53 27.57554 -79.31969 33738 ft 401 kts 210°
2026-05-05 18:53 27.52263 -79.33916 33744 ft 400 kts 210°
2026-05-05 18:54 27.50393 -79.34604 33745 ft 400 kts 210°
2026-05-05 19:33 27.48718 -79.35220 33744 ft 400 kts 210°
2026-05-05 19:33 27.46061 -79.36200 33510 ft 407 kts 210°
2026-05-05 19:33 27.43328 -79.37215 32774 ft 419 kts 208°
2026-05-05 19:34 27.40519 -79.38253 31810 ft 432 kts 208°
2026-05-05 19:34 27.37608 -79.39322 30703 ft 448 kts 206°
2026-05-05 19:34 27.34609 -79.40417 29868 ft 455 kts 206°
2026-05-05 19:35 27.28633 -79.42589 28926 ft 448 kts 206°
2026-05-05 19:35 27.25682 -79.43667 28457 ft 444 kts 206°
2026-05-05 19:35 27.22790 -79.44724 27996 ft 441 kts 206°
2026-05-05 19:35 27.19848 -79.45801 27541 ft 437 kts 206°
2026-05-05 19:36 27.16970 -79.46855 27089 ft 434 kts 206°
2026-05-05 19:36 27.14113 -79.47900 26641 ft 430 kts 206°
2026-05-05 19:36 27.11282 -79.48936 26200 ft 426 kts 206°
2026-05-05 19:36 27.08471 -79.49963 25761 ft 423 kts 206°
2026-05-05 19:37 27.05693 -79.50976 25326 ft 419 kts 206°
2026-05-05 19:37 27.02932 -79.51982 24893 ft 416 kts 206°
2026-05-05 19:37 27.00190 -79.52980 24468 ft 412 kts 206°
2026-05-05 19:37 26.97469 -79.53972 24041 ft 409 kts 206°
2026-05-05 19:38 26.94778 -79.54953 23622 ft 406 kts 206°
2026-05-05 19:38 26.92100 -79.55928 23203 ft 403 kts 206°
2026-05-05 19:38 26.89442 -79.56894 22789 ft 400 kts 205°
2026-05-05 19:38 26.86806 -79.57850 22379 ft 397 kts 205°
2026-05-05 19:39 26.84191 -79.58793 21978 ft 394 kts 205°
2026-05-05 19:39 26.81589 -79.59729 21562 ft 391 kts 205°
2026-05-05 19:39 26.79007 -79.60659 21155 ft 389 kts 205°
2026-05-05 19:39 26.76445 -79.61582 20752 ft 386 kts 204°
2026-05-05 19:40 26.73899 -79.62500 20345 ft 383 kts 204°
2026-05-05 19:40 26.71368 -79.63412 19944 ft 381 kts 204°
2026-05-05 19:40 26.68850 -79.64319 19544 ft 379 kts 204°
2026-05-05 19:40 26.66353 -79.65218 19141 ft 376 kts 203°
2026-05-05 19:41 26.63904 -79.66098 18830 ft 372 kts 203°
2026-05-05 19:41 26.61465 -79.66969 18549 ft 366 kts 203°
2026-05-05 19:41 26.59043 -79.67821 18166 ft 365 kts 202°
2026-05-05 19:41 26.56622 -79.68666 17791 ft 363 kts 202°
2026-05-05 19:42 26.54215 -79.69507 17393 ft 361 kts 202°
2026-05-05 19:42 26.51821 -79.70344 16993 ft 360 kts 202°
2026-05-05 19:42 26.49432 -79.71180 16595 ft 359 kts 202°
2026-05-05 19:42 26.47066 -79.72021 16200 ft 353 kts 205°
2026-05-05 19:43 26.45003 -79.73352 15896 ft 336 kts 227°
2026-05-05 19:43 26.43444 -79.75250 15730 ft 336 kts 232°
2026-05-05 19:43 26.41861 -79.77233 15519 ft 347 kts 231°
2026-05-05 19:43 26.40225 -79.79231 15296 ft 349 kts 231°
2026-05-05 19:44 26.38592 -79.81215 15073 ft 345 kts 231°
2026-05-05 19:44 26.37110 -79.83296 14838 ft 340 kts 238°
2026-05-05 19:44 26.35806 -79.85468 14643 ft 334 kts 239°
2026-05-05 19:44 26.34534 -79.87591 14422 ft 325 kts 239°
2026-05-05 19:45 26.33276 -79.89638 14219 ft 316 kts 238°
2026-05-05 19:45 26.32044 -79.91621 14024 ft 306 kts 238°
2026-05-05 19:45 26.30846 -79.93539 13834 ft 297 kts 238°
2026-05-05 19:45 26.29671 -79.95418 13662 ft 294 kts 238°
2026-05-05 19:46 26.28501 -79.97286 13483 ft 294 kts 238°
2026-05-05 19:46 26.27327 -79.99157 13299 ft 294 kts 238°
2026-05-05 19:46 26.26120 -80.00984 13107 ft 292 kts 229°
2026-05-05 19:46 26.24454 -80.02300 12931 ft 298 kts 207°
2026-05-05 19:47 26.22445 -80.02938 12749 ft 302 kts 195°
2026-05-05 19:47 26.20374 -80.03391 12575 ft 304 kts 194°
2026-05-05 19:47 26.18295 -80.03841 12384 ft 305 kts 195°
2026-05-05 19:47 26.16210 -80.04299 12186 ft 306 kts 195°
2026-05-05 19:48 26.14121 -80.04764 11987 ft 306 kts 195°
2026-05-05 19:48 26.12036 -80.05235 11792 ft 303 kts 195°
2026-05-05 19:48 26.10012 -80.05695 11597 ft 299 kts 195°
2026-05-05 19:48 26.07961 -80.06162 11407 ft 295 kts 195°
2026-05-05 19:49 26.05993 -80.06625 11224 ft 292 kts 196°
2026-05-05 19:49 26.04661 -80.06968 11117 ft 290 kts 196°
2026-05-05 19:49 26.02065 -80.07653 10873 ft 288 kts 196°
2026-05-05 19:49 26.00116 -80.08166 10681 ft 288 kts 196°
2026-05-05 19:50 25.98171 -80.08674 10510 ft 287 kts 196°
2026-05-05 19:50 25.96230 -80.09180 10334 ft 287 kts 196°
2026-05-05 19:50 25.94287 -80.09684 10145 ft 284 kts 196°
2026-05-05 19:50 25.92383 -80.10189 9966 ft 277 kts 199°
2026-05-05 19:51 25.90611 -80.10994 9810 ft 275 kts 209°
2026-05-05 19:51 25.88925 -80.11992 9643 ft 274 kts 211°
2026-05-05 19:51 25.87255 -80.13009 9485 ft 274 kts 211°
2026-05-05 19:51 25.85618 -80.13996 9300 ft 275 kts 210°
2026-05-05 19:52 25.83929 -80.14997 9131 ft 275 kts 210°
2026-05-05 19:52 25.82247 -80.15986 8962 ft 273 kts 209°
2026-05-05 19:52 25.80572 -80.16964 8791 ft 271 kts 209°
2026-05-05 19:52 25.78903 -80.17930 8614 ft 270 kts 209°
2026-05-05 19:53 25.77242 -80.18890 8447 ft 268 kts 209°
2026-05-05 19:53 25.75591 -80.19842 8296 ft 267 kts 209°
2026-05-05 19:53 25.73952 -80.20795 8110 ft 263 kts 213°
2026-05-05 19:53 25.72647 -80.22158 7904 ft 258 kts 239°
2026-05-05 19:54 25.71977 -80.23997 7662 ft 260 kts 256°
2026-05-05 19:54 25.71579 -80.25968 7398 ft 264 kts 257°
2026-05-05 19:54 25.71192 -80.27972 7122 ft 267 kts 261°
2026-05-05 19:54 25.71031 -80.30030 6842 ft 268 kts 266°
2026-05-05 19:55 25.70968 -80.32082 6550 ft 263 kts 267°
2026-05-05 19:55 25.70911 -80.34084 6283 ft 258 kts 267°
2026-05-05 19:55 25.70841 -80.36047 6003 ft 257 kts 266°
2026-05-05 19:55 25.70761 -80.37969 5752 ft 257 kts 266°
2026-05-05 19:56 25.70671 -80.39954 5482 ft 258 kts 266°
2026-05-05 19:56 25.70578 -80.41944 5214 ft 259 kts 266°
2026-05-05 19:56 25.70481 -80.43936 4903 ft 261 kts 265°
2026-05-05 19:56 25.70376 -80.45950 4524 ft 261 kts 267°
2026-05-05 19:57 25.70319 -80.47954 4204 ft 258 kts 268°
2026-05-05 19:57 25.70286 -80.49254 4115 ft 250 kts 268°
2026-05-05 19:57 25.70227 -80.51817 3938 ft 251 kts 268°
2026-05-05 19:57 25.70508 -80.53674 3906 ft 241 kts 298°
2026-05-05 19:58 25.71657 -80.54884 3872 ft 226 kts 340°
2026-05-05 19:58 25.73168 -80.55076 3903 ft 219 kts
2026-05-05 19:58 25.74697 -80.54774 3708 ft 225 kts 18°
2026-05-05 19:58 25.76014 -80.53949 3521 ft 215 kts 42°
2026-05-05 19:59 25.76936 -80.52710 3358 ft 201 kts 65°
2026-05-05 19:59 25.77305 -80.51254 3256 ft 194 kts 80°
2026-05-05 19:59 25.77579 -80.49781 3158 ft 197 kts 78°
2026-05-05 19:59 25.77854 -80.48295 3026 ft 196 kts 82°
2026-05-05 20:00 25.77978 -80.46786 2763 ft 195 kts 88°
2026-05-05 20:00 25.78041 -80.45303 2509 ft 190 kts 89°
2026-05-05 20:00 25.78097 -80.43891 2301 ft 179 kts 89°
2026-05-05 20:00 25.78152 -80.42546 2011 ft 164 kts 89°
2026-05-05 20:01 25.78201 -80.41361 1831 ft 149 kts 88°
2026-05-05 20:01 25.78247 -80.40222 1647 ft 149 kts 87°
2026-05-05 20:01 25.78294 -80.39087 1440 ft 144 kts 86°
2026-05-05 20:01 25.78339 -80.37979 1243 ft 144 kts 87°
2026-05-05 20:02 25.78386 -80.36872 1058 ft 144 kts 87°
2026-05-05 20:02 25.78417 -80.36130 946 ft 146 kts 87°
2026-05-05 20:02 25.78479 -80.34628 669 ft 145 kts 87°
2026-05-05 20:02 25.78524 -80.33517 485 ft 144 kts 87°
2026-05-05 20:03 25.78555 -80.32779 356 ft 146 kts 87°
2026-05-05 20:03 25.78614 -80.31270 61 ft 146 kts 87°
2026-05-05 20:03 25.78637 -80.30555 30 ft 140 kts 87°
2026-05-05 20:03 25.78697 -80.29315 24 ft 106 kts 88°
2026-05-05 20:04 25.78711 -80.28947 19 ft 45 kts 87°
2026-05-05 20:04 25.78739 -80.28780 20 ft 20 kts 63°
2026-05-05 20:04 25.78779 -80.28722 19 ft 4 kts 47°
2026-05-05 20:04 25.78803 -80.28702 20 ft 5 kts 28°
2026-05-05 20:05 25.78834 -80.28688 19 ft 5 kts 18°
2026-05-05 20:05 25.78869 -80.28685 20 ft 5 kts
2026-05-05 20:05 25.78922 -80.28691 20 ft 17 kts 343°
2026-05-05 20:05 25.78950 -80.28742 19 ft 9 kts 272°
2026-05-05 20:06 25.78950 -80.28811 19 ft 9 kts 268°
2026-05-05 20:06 25.78943 -80.28879 19 ft 9 kts 258°
2026-05-05 20:06 25.78924 -80.28958 20 ft 11 kts 255°
2026-05-05 20:06 25.78906 -80.29056 21 ft 19 kts 264°
2026-05-05 20:07 25.78898 -80.29197 19 ft 15 kts 266°
2026-05-05 20:07 25.78894 -80.29314 19 ft 15 kts 268°
2026-05-05 20:07 25.78887 -80.29429 22 ft 15 kts 266°
2026-05-05 20:07 25.78882 -80.29545 21 ft 15 kts 269°
2026-05-05 20:08 25.78879 -80.29658 19 ft 15 kts 268°
2026-05-05 20:08 25.78874 -80.29774 19 ft 15 kts 268°
2026-05-05 20:08 25.78870 -80.29889 21 ft 15 kts 267°
2026-05-05 20:08 25.78865 -80.30006 20 ft 15 kts 267°
2026-05-05 20:09 25.78864 -80.30116 21 ft 11 kts 288°
2026-05-05 20:09 25.78920 -80.30126 19 ft 8 kts
2026-05-05 20:09 25.78948 -80.30108 20 ft 5 kts 81°
2026-05-05 20:09 25.78949 -80.30071 19 ft 5 kts 89°
2026-05-05 20:10 25.78949 -80.30040 20 ft 0 kts 88°